START_TIME,STEP,MOV.,M15,t_acc.,M20,t_acc.
1979-07-12 06:00:44.300 ,0,1,0.,24.0,0.,24.0
1979-07-12 06:01:08.300 ,4,1,1.,24.0,0.,24.0
1979-07-12 06:01:32.300 ,7,1,0.,24.0,0.,24.0
1979-07-12 06:01:56.300 ,3,1,1.,24.0,0.,24.0
1979-07-12 06:02:20.300 ,0,1,0.,24.0,0.,24.0
1979-07-12 06:02:44.300 ,4,1,0.,24.0,0.,24.0
1979-07-12 06:03:08.300 ,7,1,0.,24.0,0.,24.0
1979-07-12 06:03:32.300 ,3,1,0.,24.0,0.,24.0
1979-07-12 06:03:56.300 ,0,1,0.,24.0,0.,24.0
1979-07-12 06:04:20.300 ,4,1,0.,24.0,0.,24.0
1979-07-12 06:04:44.300 ,7,1,0.,24.0,0.,24.0
1979-07-12 06:05:08.300 ,3,1,0.,24.0,0.,24.0
1979-07-12 06:05:32.300 ,0,1,1.,24.0,0.,24.0
1979-07-12 06:05:56.300 ,0,0,0.,24.0,0.,24.0
1979-07-12 06:06:20.300 ,0,0,0.,24.0,0.,24.0
1979-07-12 06:06:44.300 ,5,1,0.,24.0,0.,24.0
1979-07-12 06:07:08.300 ,5,0,0.,24.0,0.,24.0
1979-07-12 06:07:32.300 ,4,1,0.,24.0,0.,24.0
1979-07-12 06:07:56.300 ,4,0,0.,24.0,0.,24.0
1979-07-12 06:08:20.300 ,3,1,0.,24.0,0.,24.0
1979-07-12 06:08:44.300 ,3,0,0.,24.0,0.,24.0
1979-07-12 06:09:08.300 ,2,1,0.,24.0,0.,24.0
1979-07-12 06:09:32.300 ,2,0,0.,24.0,0.,24.0
1979-07-12 06:09:56.300 ,1,1,1.,24.0,0.,24.0
1979-07-12 06:10:20.300 ,1,0,0.,24.0,0.,24.0
1979-07-12 06:10:44.300 ,0,1,0.,24.0,0.,24.0
1979-07-12 06:11:08.300 ,0,0,0.,24.0,0.,24.0
1979-07-12 06:11:32.300 ,0,1,0.,24.0,0.,24.0
1979-07-12 06:11:56.300 ,0,0,0.,24.0,0.,24.0
1979-07-12 06:12:20.300 ,1,1,0.,24.0,0.,24.0
1979-07-12 06:12:44.300 ,1,0,1.,24.0,0.,24.0
1979-07-12 06:13:08.300 ,2,1,0.,24.0,0.,24.0
1979-07-12 06:13:32.300 ,2,0,0.,24.0,0.,24.0
1979-07-12 06:13:56.300 ,3,1,0.,24.0,0.,24.0
1979-07-12 06:14:20.300 ,3,0,0.,24.0,0.,24.0
1979-07-12 06:14:44.300 ,4,1,1.,24.0,0.,24.0
1979-07-12 06:15:08.300 ,4,0,0.,24.0,0.,24.0
1979-07-12 06:15:32.300 ,5,1,0.,24.0,0.,24.0
1979-07-12 06:15:56.300 ,5,0,0.,24.0,0.,24.0
1979-07-12 06:16:20.300 ,6,1,0.,24.0,0.,24.0
1979-07-12 06:16:44.300 ,6,0,0.,24.0,0.,24.0
1979-07-12 06:17:08.300 ,7,1,0.,24.0,0.,24.0
1979-07-12 06:17:32.300 ,7,0,1.,24.0,0.,24.0
1979-07-12 06:17:56.300 ,7,1,0.,24.0,0.,24.0
1979-07-12 06:18:20.300 ,7,0,0.,24.0,0.,24.0
1979-07-12 06:18:44.300 ,6,1,0.,24.0,0.,24.0
1979-07-12 06:19:08.300 ,6,0,0.,24.0,0.,24.0
1979-07-12 06:19:32.300 ,5,1,0.,24.0,0.,24.0
1979-07-12 06:19:56.300 ,5,0,0.,24.0,0.,24.0
1979-07-12 06:20:20.300 ,4,1,1.,24.0,0.,24.0
1979-07-12 06:20:44.300 ,4,0,1.,24.0,0.,24.0
1979-07-12 06:21:08.300 ,3,1,0.,24.0,0.,24.0
1979-07-12 06:21:32.300 ,3,0,0.,24.0,0.,24.0
1979-07-12 06:21:56.300 ,2,1,1.,24.0,0.,24.0
1979-07-12 06:22:20.300 ,2,0,0.,24.0,0.,24.0
1979-07-12 06:22:44.300 ,1,1,1.,24.0,0.,24.0
1979-07-12 06:23:08.300 ,1,0,0.,24.0,0.,24.0
1979-07-12 06:23:32.300 ,0,1,0.,24.0,0.,24.0
1979-07-12 06:23:56.300 ,0,0,0.,24.0,0.,24.0
1979-07-12 06:24:20.300 ,0,1,0.,24.0,0.,24.0
1979-07-12 06:24:44.300 ,0,0,1.,24.0,0.,24.0
1979-07-12 06:25:08.300 ,1,1,0.,24.0,0.,24.0
1979-07-12 06:25:32.300 ,1,0,0.,24.0,0.,24.0
1979-07-12 06:25:56.300 ,2,1,0.,24.0,0.,24.0
1979-07-12 06:26:20.300 ,2,0,0.,24.0,0.,24.0
1979-07-12 06:26:44.300 ,3,1,0.,24.0,0.,24.0
1979-07-12 06:27:08.300 ,3,0,1.,24.0,0.,24.0
1979-07-12 06:27:32.300 ,4,1,0.,24.0,0.,24.0
1979-07-12 06:27:56.300 ,4,0,0.,24.0,0.,24.0
1979-07-12 06:28:20.300 ,5,1,0.,24.0,0.,24.0
1979-07-12 06:28:44.300 ,5,0,0.,24.0,0.,24.0
1979-07-12 06:29:08.300 ,6,1,0.,24.0,0.,24.0
1979-07-12 06:29:32.300 ,6,0,1.,24.0,0.,24.0
1979-07-12 06:29:56.300 ,7,1,0.,24.0,0.,24.0
1979-07-12 06:30:20.300 ,7,0,2.,24.0,0.,24.0
1979-07-12 06:30:44.300 ,7,1,0.,24.0,0.,24.0
1979-07-12 06:31:08.300 ,7,0,0.,24.0,0.,24.0
1979-07-12 06:31:32.300 ,6,1,0.,24.0,0.,24.0
1979-07-12 06:31:56.300 ,6,0,0.,24.0,0.,24.0
1979-07-12 06:32:20.300 ,5,1,0.,24.0,0.,24.0
1979-07-12 06:32:44.300 ,5,0,0.,24.0,0.,24.0
1979-07-12 06:33:08.300 ,4,1,0.,24.0,0.,24.0
1979-07-12 06:33:32.300 ,4,0,0.,24.0,0.,24.0
1979-07-12 06:33:56.300 ,3,1,0.,24.0,0.,24.0
1979-07-12 06:34:20.300 ,3,0,0.,24.0,0.,24.0
1979-07-12 06:34:44.300 ,2,1,0.,24.0,0.,24.0
1979-07-12 06:35:08.300 ,2,0,0.,24.0,0.,24.0
1979-07-12 06:35:32.300 ,1,1,0.,24.0,0.,24.0
1979-07-12 06:35:56.300 ,1,0,0.,24.0,0.,24.0
1979-07-12 06:36:20.300 ,0,1,0.,24.0,0.,24.0
1979-07-12 06:36:44.300 ,0,0,0.,24.0,0.,24.0
1979-07-12 06:37:08.300 ,0,1,1.,24.0,0.,24.0
1979-07-12 06:37:32.300 ,0,0,0.,24.0,0.,24.0
1979-07-12 06:37:56.300 ,1,1,0.,24.0,0.,24.0
1979-07-12 06:38:20.300 ,1,0,0.,24.0,0.,24.0
1979-07-12 06:38:44.300 ,2,1,0.,24.0,0.,24.0
1979-07-12 06:39:08.300 ,2,0,0.,24.0,0.,24.0
1979-07-12 06:39:32.300 ,3,1,0.,24.0,0.,24.0
1979-07-12 06:39:56.300 ,3,0,0.,24.0,0.,24.0
1979-07-12 06:40:20.300 ,4,1,0.,24.0,0.,24.0
1979-07-12 06:40:44.300 ,4,0,0.,24.0,0.,24.0
1979-07-12 06:41:08.300 ,5,1,0.,24.0,0.,24.0
1979-07-12 06:41:32.300 ,5,0,0.,24.0,0.,24.0
1979-07-12 06:41:56.300 ,6,1,0.,24.0,0.,24.0
1979-07-12 06:42:20.300 ,6,0,0.,24.0,0.,24.0
1979-07-12 06:42:44.300 ,7,0,0.,24.0,0.,24.0
1979-07-12 06:43:08.300 ,7,0,0.,24.0,0.,24.0
1979-07-12 06:43:32.300 ,3,1,0.,24.0,0.,24.0
1979-07-12 06:43:56.300 ,0,1,0.,24.0,0.,24.0
1979-07-12 06:44:20.300 ,4,1,0.,24.0,0.,24.0
1979-07-12 06:44:44.300 ,7,1,1.,24.0,0.,24.0
1979-07-12 06:45:08.300 ,3,1,0.,24.0,0.,24.0
1979-07-12 06:45:32.300 ,0,1,0.,24.0,0.,24.0
1979-07-12 06:45:56.300 ,4,1,1.,24.0,0.,24.0
1979-07-12 06:46:20.300 ,7,1,0.,24.0,0.,24.0
1979-07-12 06:46:44.300 ,3,1,0.,24.0,0.,24.0
1979-07-12 06:47:08.300 ,0,1,0.,24.0,0.,24.0
1979-07-12 06:47:32.300 ,4,1,1.,24.0,0.,24.0
1979-07-12 06:47:56.300 ,7,1,0.,24.0,0.,24.0
1979-07-12 06:48:20.300 ,3,1,0.,24.0,0.,24.0
1979-07-12 06:48:44.300 ,0,1,0.,24.0,0.,24.0
1979-07-12 06:49:08.300 ,4,1,0.,24.0,0.,24.0
1979-07-12 06:49:32.300 ,7,1,0.,24.0,0.,24.0
1979-07-12 06:49:56.300 ,3,1,0.,24.0,0.,24.0
1979-07-12 06:50:20.300 ,0,1,0.,24.0,0.,24.0
1979-07-12 06:50:44.300 ,4,1,0.,24.0,0.,24.0
1979-07-12 06:51:08.300 ,7,1,0.,24.0,0.,24.0
1979-07-12 06:51:32.300 ,3,1,0.,24.0,0.,24.0
1979-07-12 06:51:56.300 ,0,1,0.,24.0,0.,24.0
1979-07-12 06:52:20.300 ,4,1,0.,24.0,0.,24.0
1979-07-12 06:52:44.300 ,7,1,0.,24.0,0.,24.0
1979-07-12 06:53:08.300 ,3,1,0.,24.0,0.,24.0
1979-07-12 06:53:32.300 ,0,0,,0,,0
1979-07-12 06:54:22.100 ,0,0,0.,24.0,0.,24.0
1979-07-12 06:54:44.300 ,5,1,0.,24.0,0.,24.0
1979-07-12 06:55:08.300 ,5,0,1.,24.0,0.,24.0
1979-07-12 06:55:32.300 ,4,1,0.,24.0,0.,24.0
1979-07-12 06:55:56.300 ,4,0,0.,24.0,0.,24.0
1979-07-12 06:56:20.300 ,3,1,0.,24.0,0.,24.0
1979-07-12 06:56:44.300 ,3,0,0.,24.0,0.,24.0
1979-07-12 06:57:08.300 ,2,1,0.,24.0,0.,24.0
1979-07-12 06:57:32.300 ,2,0,0.,24.0,0.,24.0
1979-07-12 06:57:56.300 ,1,1,0.,24.0,0.,24.0
1979-07-12 06:58:20.300 ,1,0,0.,24.0,0.,24.0
1979-07-12 06:58:44.300 ,0,1,0.,24.0,0.,24.0
1979-07-12 06:59:08.300 ,0,0,0.,24.0,0.,24.0
1979-07-12 06:59:32.300 ,0,1,0.,24.0,0.,24.0
1979-07-12 06:59:56.300 ,0,0,0.,24.0,0.,24.0
1979-07-12 07:00:20.300 ,1,1,0.,24.0,0.,24.0
1979-07-12 07:00:44.300 ,1,0,0.,24.0,0.,24.0
1979-07-12 07:01:08.300 ,2,1,0.,24.0,0.,24.0
1979-07-12 07:01:32.300 ,2,0,0.,24.0,0.,24.0
1979-07-12 07:01:56.300 ,3,1,0.,24.0,0.,24.0
1979-07-12 07:02:20.300 ,3,0,0.,24.0,0.,24.0
1979-07-12 07:02:44.300 ,4,1,0.,24.0,0.,24.0
1979-07-12 07:03:08.300 ,4,0,0.,24.0,0.,24.0
1979-07-12 07:03:32.300 ,5,1,0.,24.0,0.,24.0
1979-07-12 07:03:56.300 ,5,0,1.,24.0,0.,24.0
1979-07-12 07:04:20.300 ,6,1,0.,24.0,0.,24.0
1979-07-12 07:04:44.300 ,6,0,0.,24.0,0.,24.0
1979-07-12 07:05:08.300 ,7,1,0.,24.0,0.,24.0
1979-07-12 07:05:32.300 ,7,0,0.,24.0,0.,24.0
1979-07-12 07:05:56.300 ,7,1,1.,24.0,0.,24.0
1979-07-12 07:06:20.300 ,7,0,0.,24.0,0.,24.0
1979-07-12 07:06:44.300 ,6,1,2.,24.0,0.,24.0
1979-07-12 07:07:08.290 ,6,0,0.,24.0,0.,24.0
1979-07-12 07:07:32.300 ,5,1,0.,24.0,0.,24.0
1979-07-12 07:07:56.300 ,5,0,1.,24.0,0.,24.0
1979-07-12 07:08:20.290 ,4,1,0.,24.0,0.,24.0
1979-07-12 07:08:44.290 ,4,0,0.,24.0,0.,24.0
1979-07-12 07:09:08.300 ,3,1,0.,24.0,0.,24.0
1979-07-12 07:09:32.300 ,3,0,0.,24.0,0.,24.0
1979-07-12 07:09:56.300 ,2,1,0.,24.0,0.,24.0
1979-07-12 07:10:20.300 ,2,0,0.,24.0,0.,24.0
1979-07-12 07:10:44.300 ,1,1,0.,24.0,0.,24.0
1979-07-12 07:11:08.300 ,1,0,1.,24.0,0.,24.0
1979-07-12 07:11:32.300 ,0,1,0.,24.0,0.,24.0
1979-07-12 07:11:56.300 ,0,0,1.,24.0,0.,24.0
1979-07-12 07:12:20.300 ,0,1,0.,24.0,0.,24.0
1979-07-12 07:12:44.300 ,0,0,0.,24.0,0.,24.0
1979-07-12 07:13:08.300 ,1,1,0.,24.0,0.,24.0
1979-07-12 07:13:32.300 ,1,0,0.,24.0,0.,24.0
1979-07-12 07:13:56.300 ,2,1,0.,24.0,0.,24.0
1979-07-12 07:14:20.300 ,2,0,0.,24.0,0.,24.0
1979-07-12 07:14:44.300 ,3,1,0.,24.0,0.,24.0
1979-07-12 07:15:08.300 ,3,0,0.,24.0,0.,24.0
1979-07-12 07:15:32.300 ,4,1,0.,24.0,0.,24.0
1979-07-12 07:15:56.300 ,4,0,1.,24.0,0.,24.0
1979-07-12 07:16:20.300 ,5,1,0.,24.0,0.,24.0
1979-07-12 07:16:44.300 ,5,0,1.,24.0,0.,24.0
1979-07-12 07:17:08.300 ,6,1,0.,24.0,0.,24.0
1979-07-12 07:17:32.300 ,6,0,1.,24.0,0.,24.0
1979-07-12 07:17:56.300 ,7,1,0.,24.0,0.,24.0
1979-07-12 07:18:20.300 ,7,0,0.,24.0,0.,24.0
1979-07-12 07:18:44.300 ,7,1,0.,24.0,0.,24.0
1979-07-12 07:19:08.300 ,7,0,0.,24.0,0.,24.0
1979-07-12 07:19:32.300 ,6,1,0.,24.0,0.,24.0
1979-07-12 07:19:56.300 ,6,0,0.,24.0,0.,24.0
1979-07-12 07:20:20.300 ,5,1,1.,24.0,0.,24.0
1979-07-12 07:20:44.300 ,5,0,0.,24.0,0.,24.0
1979-07-12 07:21:08.300 ,4,1,0.,24.0,0.,24.0
1979-07-12 07:21:32.300 ,4,0,0.,24.0,0.,24.0
1979-07-12 07:21:56.300 ,3,1,0.,24.0,0.,24.0
1979-07-12 07:22:20.300 ,3,0,0.,24.0,0.,24.0
1979-07-12 07:22:44.300 ,2,1,0.,24.0,0.,24.0
1979-07-12 07:23:08.300 ,2,0,0.,24.0,0.,24.0
1979-07-12 07:23:32.300 ,1,1,0.,24.0,0.,24.0
1979-07-12 07:23:56.300 ,1,0,0.,24.0,0.,24.0
1979-07-12 07:24:20.300 ,0,1,0.,24.0,0.,24.0
1979-07-12 07:24:44.300 ,0,0,0.,24.0,0.,24.0
1979-07-12 07:25:08.300 ,0,1,0.,24.0,0.,24.0
1979-07-12 07:25:32.300 ,0,0,0.,24.0,0.,24.0
1979-07-12 07:25:56.300 ,1,1,0.,24.0,0.,24.0
1979-07-12 07:26:20.300 ,1,0,0.,24.0,0.,24.0
1979-07-12 07:26:44.300 ,2,1,0.,24.0,0.,24.0
1979-07-12 07:27:08.300 ,2,0,0.,24.0,0.,24.0
1979-07-12 07:27:32.300 ,3,1,0.,24.0,0.,24.0
1979-07-12 07:27:56.300 ,3,0,0.,24.0,0.,24.0
1979-07-12 07:28:20.300 ,4,1,0.,24.0,0.,24.0
1979-07-12 07:28:44.300 ,4,0,0.,24.0,0.,24.0
1979-07-12 07:29:08.300 ,5,1,0.,24.0,0.,24.0
1979-07-12 07:29:32.300 ,5,0,0.,24.0,0.,24.0
1979-07-12 07:29:56.300 ,6,1,0.,24.0,0.,24.0
1979-07-12 07:30:20.300 ,6,0,0.,24.0,0.,24.0
1979-07-12 07:30:44.300 ,7,0,0.,24.0,0.,24.0
1979-07-12 07:31:08.300 ,7,0,0.,24.0,0.,24.0
1979-07-12 07:31:32.300 ,3,1,0.,24.0,0.,24.0
1979-07-12 07:31:56.300 ,0,1,0.,24.0,0.,24.0
1979-07-12 07:32:20.290 ,4,1,0.,24.0,0.,24.0
1979-07-12 07:32:44.290 ,7,1,0.,24.0,0.,24.0
1979-07-12 07:33:08.290 ,3,1,0.,24.0,0.,24.0
1979-07-12 07:33:32.290 ,0,1,0.,24.0,0.,24.0
1979-07-12 07:33:56.290 ,4,1,0.,24.0,0.,24.0
1979-07-12 07:34:20.290 ,7,1,0.,24.0,0.,24.0
1979-07-12 07:34:44.290 ,3,1,1.,24.0,0.,24.0
1979-07-12 07:35:08.290 ,0,1,0.,24.0,0.,24.0
1979-07-12 07:35:32.290 ,4,1,0.,24.0,0.,24.0
1979-07-12 07:35:56.290 ,7,1,0.,24.0,0.,24.0
1979-07-12 07:36:20.290 ,3,1,0.,24.0,0.,24.0
1979-07-12 07:36:44.290 ,0,1,0.,24.0,0.,24.0
1979-07-12 07:37:08.290 ,4,1,1.,24.0,0.,24.0
1979-07-12 07:37:32.290 ,7,1,0.,24.0,0.,24.0
1979-07-12 07:37:56.290 ,3,1,0.,24.0,0.,24.0
1979-07-12 07:38:20.290 ,0,1,0.,24.0,0.,24.0
1979-07-12 07:38:44.290 ,4,1,0.,24.0,0.,24.0
1979-07-12 07:39:08.290 ,7,1,0.,24.0,0.,24.0
1979-07-12 07:39:32.290 ,3,1,1.,24.0,0.,24.0
1979-07-12 07:39:56.290 ,0,1,0.,24.0,0.,24.0
1979-07-12 07:40:20.290 ,4,1,0.,24.0,0.,24.0
1979-07-12 07:40:44.290 ,7,1,0.,24.0,0.,24.0
1979-07-12 07:41:08.290 ,3,1,0.,24.0,0.,24.0
1979-07-12 07:41:32.290 ,0,1,0.,24.0,0.,24.0
1979-07-12 07:41:56.290 ,0,0,0.,24.0,0.,24.0
1979-07-12 07:42:20.290 ,0,0,0.,24.0,0.,24.0
1979-07-12 07:42:44.290 ,5,1,0.,24.0,0.,24.0
1979-07-12 07:43:08.290 ,5,0,0.,24.0,0.,24.0
1979-07-12 07:43:32.290 ,4,1,0.,24.0,0.,24.0
1979-07-12 07:43:56.290 ,4,0,0.,24.0,0.,24.0
1979-07-12 07:44:20.290 ,3,1,0.,24.0,0.,24.0
1979-07-12 07:44:44.290 ,3,0,1.,24.0,0.,24.0
1979-07-12 07:45:08.290 ,2,1,0.,24.0,0.,24.0
1979-07-12 07:45:32.290 ,2,0,0.,24.0,0.,24.0
1979-07-12 07:45:56.290 ,1,1,0.,24.0,0.,24.0
1979-07-12 07:46:20.290 ,1,0,0.,24.0,0.,24.0
1979-07-12 07:46:44.290 ,0,1,0.,24.0,0.,24.0
1979-07-12 07:47:08.290 ,0,0,1.,24.0,0.,24.0
1979-07-12 07:47:32.290 ,0,1,0.,24.0,0.,24.0
1979-07-12 07:47:56.290 ,0,0,0.,24.0,0.,24.0
1979-07-12 07:48:20.290 ,1,1,0.,24.0,0.,24.0
1979-07-12 07:48:44.290 ,1,0,0.,24.0,0.,24.0
1979-07-12 07:49:08.290 ,2,1,0.,24.0,0.,24.0
1979-07-12 07:49:32.290 ,2,0,0.,24.0,0.,24.0
1979-07-12 07:49:56.290 ,3,1,0.,24.0,0.,24.0
1979-07-12 07:50:20.290 ,3,0,0.,24.0,0.,24.0
1979-07-12 07:50:44.290 ,4,1,0.,24.0,0.,24.0
1979-07-12 07:51:08.290 ,4,0,0.,24.0,0.,24.0
1979-07-12 07:51:32.290 ,5,1,0.,24.0,0.,24.0
1979-07-12 07:51:56.290 ,5,0,0.,24.0,0.,24.0
1979-07-12 07:52:20.290 ,6,1,0.,24.0,0.,24.0
1979-07-12 07:52:44.290 ,6,0,0.,24.0,0.,24.0
1979-07-12 07:53:08.290 ,7,1,0.,24.0,0.,24.0
1979-07-12 07:53:32.290 ,7,0,0.,24.0,0.,24.0
1979-07-12 07:53:56.290 ,7,1,0.,24.0,0.,24.0
1979-07-12 07:54:20.290 ,7,0,0.,24.0,0.,24.0
1979-07-12 07:54:44.290 ,6,1,0.,24.0,0.,24.0
1979-07-12 07:55:08.290 ,6,0,0.,24.0,0.,24.0
1979-07-12 07:55:32.290 ,5,1,0.,24.0,0.,24.0
1979-07-12 07:55:56.290 ,5,0,0.,24.0,0.,24.0
1979-07-12 07:56:20.290 ,4,1,0.,24.0,0.,24.0
1979-07-12 07:56:44.290 ,4,0,0.,24.0,0.,24.0
1979-07-12 07:57:08.290 ,3,1,0.,24.0,0.,24.0
1979-07-12 07:57:32.290 ,3,0,0.,24.0,0.,24.0
1979-07-12 07:57:56.290 ,2,1,0.,24.0,0.,24.0
1979-07-12 07:58:20.290 ,2,0,0.,24.0,0.,24.0
1979-07-12 07:58:44.290 ,1,1,0.,24.0,0.,24.0
1979-07-12 07:59:08.290 ,1,0,0.,24.0,0.,24.0
1979-07-12 07:59:32.290 ,0,1,0.,24.0,0.,24.0
1979-07-12 07:59:56.290 ,0,0,0.,24.0,0.,24.0
1979-07-12 08:00:20.290 ,0,1,1.,24.0,0.,24.0
1979-07-12 08:00:44.290 ,0,0,0.,24.0,0.,24.0
1979-07-12 08:01:08.290 ,1,1,0.,24.0,0.,24.0
1979-07-12 08:01:32.290 ,1,0,0.,24.0,0.,24.0
1979-07-12 08:01:56.290 ,2,1,0.,24.0,0.,24.0
1979-07-12 08:02:20.290 ,2,0,0.,24.0,0.,24.0
1979-07-12 08:02:44.290 ,3,1,0.,24.0,0.,24.0
1979-07-12 08:03:08.290 ,3,0,0.,24.0,0.,24.0
1979-07-12 08:03:32.290 ,4,1,1.,24.0,0.,24.0
1979-07-12 08:03:56.290 ,4,0,0.,24.0,0.,24.0
1979-07-12 08:04:20.290 ,5,1,0.,24.0,0.,24.0
1979-07-12 08:04:44.290 ,5,0,0.,24.0,0.,24.0
1979-07-12 08:05:08.290 ,6,1,0.,24.0,0.,24.0
1979-07-12 08:05:32.290 ,6,0,0.,24.0,0.,24.0
1979-07-12 08:05:56.290 ,7,1,1.,24.0,0.,24.0
1979-07-12 08:06:20.290 ,7,0,0.,24.0,0.,24.0
1979-07-12 08:06:44.290 ,7,1,0.,24.0,0.,24.0
1979-07-12 08:07:08.290 ,7,0,0.,24.0,0.,24.0
1979-07-12 08:07:32.290 ,6,1,0.,24.0,0.,24.0
1979-07-12 08:07:56.290 ,6,0,0.,24.0,0.,24.0
1979-07-12 08:08:20.290 ,5,1,0.,24.0,0.,24.0
1979-07-12 08:08:44.290 ,5,0,0.,24.0,0.,24.0
1979-07-12 08:09:08.290 ,4,1,0.,24.0,0.,24.0
1979-07-12 08:09:32.290 ,4,0,0.,24.0,0.,24.0
1979-07-12 08:09:56.290 ,3,1,0.,24.0,0.,24.0
1979-07-12 08:10:20.290 ,3,0,0.,24.0,0.,24.0
1979-07-12 08:10:44.290 ,2,1,0.,24.0,0.,24.0
1979-07-12 08:11:08.290 ,2,0,0.,24.0,0.,24.0
1979-07-12 08:11:32.290 ,1,1,0.,24.0,0.,24.0
1979-07-12 08:11:56.290 ,1,0,0.,24.0,0.,24.0
1979-07-12 08:12:20.290 ,0,1,0.,24.0,0.,24.0
1979-07-12 08:12:44.290 ,0,0,0.,24.0,0.,24.0
1979-07-12 08:13:08.290 ,0,1,0.,24.0,0.,24.0
1979-07-12 08:13:32.290 ,0,0,0.,24.0,0.,24.0
1979-07-12 08:13:56.290 ,1,1,0.,24.0,0.,24.0
1979-07-12 08:14:20.290 ,1,0,1.,24.0,0.,24.0
1979-07-12 08:14:44.290 ,2,1,0.,24.0,0.,24.0
1979-07-12 08:15:08.290 ,2,0,0.,24.0,0.,24.0
1979-07-12 08:15:32.290 ,3,1,0.,24.0,0.,24.0
1979-07-12 08:15:56.290 ,3,0,0.,24.0,0.,24.0
1979-07-12 08:16:20.290 ,4,1,0.,24.0,0.,24.0
1979-07-12 08:16:44.290 ,4,0,0.,24.0,0.,24.0
1979-07-12 08:17:08.290 ,5,1,0.,24.0,0.,24.0
1979-07-12 08:17:32.290 ,5,0,0.,24.0,0.,24.0
1979-07-12 08:17:56.290 ,6,1,0.,24.0,0.,24.0
1979-07-12 08:18:20.290 ,6,0,2.,24.0,0.,24.0
1979-07-12 08:18:44.290 ,7,0,0.,24.0,0.,24.0
1979-07-12 08:19:08.290 ,7,0,0.,24.0,0.,24.0
1979-07-12 08:19:32.290 ,3,1,0.,24.0,0.,24.0
1979-07-12 08:19:56.290 ,0,1,0.,24.0,0.,24.0
1979-07-12 08:20:20.290 ,4,1,1.,24.0,0.,24.0
1979-07-12 08:20:44.290 ,7,1,0.,24.0,0.,24.0
1979-07-12 08:21:08.290 ,3,1,1.,24.0,0.,24.0
1979-07-12 08:21:32.290 ,0,1,0.,24.0,0.,24.0
1979-07-12 08:21:56.290 ,4,1,0.,24.0,0.,24.0
1979-07-12 08:22:20.290 ,7,1,0.,24.0,0.,24.0
1979-07-12 08:22:44.290 ,3,1,0.,24.0,0.,24.0
1979-07-12 08:23:08.290 ,0,1,0.,24.0,0.,24.0
1979-07-12 08:23:32.290 ,4,1,1.,24.0,0.,24.0
1979-07-12 08:23:56.290 ,7,1,0.,24.0,0.,24.0
1979-07-12 08:24:20.290 ,3,1,0.,24.0,0.,24.0
1979-07-12 08:24:44.290 ,0,1,0.,24.0,0.,24.0
1979-07-12 08:25:08.290 ,4,1,0.,24.0,0.,24.0
1979-07-12 08:25:32.290 ,7,1,0.,24.0,0.,24.0
1979-07-12 08:25:56.290 ,3,1,1.,24.0,0.,24.0
1979-07-12 08:26:20.290 ,0,1,0.,24.0,0.,24.0
1979-07-12 08:26:44.290 ,4,1,0.,24.0,0.,24.0
1979-07-12 08:27:08.290 ,7,1,0.,24.0,0.,24.0
1979-07-12 08:27:32.290 ,3,1,0.,24.0,0.,24.0
1979-07-12 08:27:56.290 ,0,1,0.,24.0,0.,24.0
1979-07-12 08:28:20.290 ,4,1,0.,24.0,0.,24.0
1979-07-12 08:28:44.290 ,0,0,,0,,0
1979-07-12 08:29:08.290 ,0,0,0.,24.0,0.,24.0
1979-07-12 08:29:32.290 ,0,1,0.,24.0,0.,24.0
1979-07-12 08:29:56.290 ,0,0,0.,24.0,0.,24.0
1979-07-12 08:30:20.290 ,0,0,0.,24.0,0.,24.0
1979-07-12 08:30:44.290 ,5,1,1.,24.0,0.,24.0
1979-07-12 08:31:08.290 ,5,0,0.,24.0,0.,24.0
1979-07-12 08:31:32.290 ,4,1,0.,24.0,0.,24.0
1979-07-12 08:31:56.290 ,4,0,0.,24.0,0.,24.0
1979-07-12 08:32:20.290 ,3,1,1.,24.0,0.,24.0
1979-07-12 08:32:44.290 ,3,0,0.,24.0,0.,24.0
1979-07-12 08:33:08.290 ,2,1,0.,24.0,0.,24.0
1979-07-12 08:33:32.290 ,2,0,0.,24.0,0.,24.0
1979-07-12 08:33:56.290 ,1,1,0.,24.0,0.,24.0
1979-07-12 08:34:20.290 ,1,0,0.,24.0,0.,24.0
1979-07-12 08:34:44.290 ,0,1,0.,24.0,0.,24.0
1979-07-12 08:35:08.290 ,0,0,0.,24.0,0.,24.0
1979-07-12 08:35:32.290 ,0,1,0.,24.0,0.,24.0
1979-07-12 08:35:56.290 ,0,0,0.,24.0,0.,24.0
1979-07-12 08:36:20.290 ,1,1,0.,24.0,0.,24.0
1979-07-12 08:36:44.290 ,1,0,0.,24.0,0.,24.0
1979-07-12 08:37:08.290 ,2,1,0.,24.0,0.,24.0
1979-07-12 08:37:32.290 ,2,0,0.,24.0,0.,24.0
1979-07-12 08:37:56.290 ,3,1,1.,24.0,0.,24.0
1979-07-12 08:38:20.290 ,3,0,0.,24.0,0.,24.0
1979-07-12 08:38:44.290 ,4,1,0.,24.0,0.,24.0
1979-07-12 08:39:08.290 ,4,0,0.,24.0,0.,24.0
1979-07-12 08:39:32.290 ,5,1,0.,24.0,0.,24.0
1979-07-12 08:39:56.290 ,5,0,0.,24.0,0.,24.0
1979-07-12 08:40:20.290 ,6,1,0.,24.0,0.,24.0
1979-07-12 08:40:44.290 ,6,0,0.,24.0,0.,24.0
1979-07-12 08:41:08.290 ,7,1,0.,24.0,0.,24.0
1979-07-12 08:41:32.290 ,7,0,0.,24.0,0.,24.0
1979-07-12 08:41:56.290 ,7,1,0.,24.0,0.,24.0
1979-07-12 08:42:20.290 ,7,0,1.,24.0,0.,24.0
1979-07-12 08:42:44.290 ,6,1,0.,24.0,0.,24.0
1979-07-12 08:43:08.290 ,6,0,0.,24.0,0.,24.0
1979-07-12 08:43:32.290 ,5,1,0.,24.0,0.,24.0
1979-07-12 08:43:56.290 ,5,0,0.,24.0,0.,24.0
1979-07-12 08:44:20.290 ,4,1,0.,24.0,0.,24.0
1979-07-12 08:44:44.290 ,4,0,0.,24.0,0.,24.0
1979-07-12 08:45:08.290 ,3,1,0.,24.0,0.,24.0
1979-07-12 08:45:32.290 ,3,0,0.,24.0,0.,24.0
1979-07-12 08:45:56.290 ,2,1,0.,24.0,0.,24.0
1979-07-12 08:46:20.290 ,2,0,0.,24.0,0.,24.0
1979-07-12 08:46:44.290 ,1,1,0.,24.0,0.,24.0
1979-07-12 08:47:08.290 ,1,0,1.,24.0,0.,24.0
1979-07-12 08:47:32.290 ,0,1,0.,24.0,0.,24.0
1979-07-12 08:47:56.290 ,0,0,0.,24.0,0.,24.0
1979-07-12 08:48:20.290 ,0,1,0.,24.0,0.,24.0
1979-07-12 08:48:44.290 ,0,0,0.,24.0,0.,24.0
1979-07-12 08:49:08.290 ,1,1,1.,24.0,0.,24.0
1979-07-12 08:49:32.290 ,1,0,0.,24.0,0.,24.0
1979-07-12 08:49:56.290 ,2,1,1.,24.0,0.,24.0
1979-07-12 08:50:20.290 ,2,0,1.,24.0,0.,24.0
1979-07-12 08:50:44.290 ,3,1,0.,24.0,0.,24.0
1979-07-12 08:51:08.290 ,3,0,0.,24.0,0.,24.0
1979-07-12 08:51:32.290 ,4,1,0.,24.0,0.,24.0
1979-07-12 08:51:56.290 ,4,0,0.,24.0,0.,24.0
1979-07-12 08:52:20.290 ,5,1,0.,24.0,0.,24.0
1979-07-12 08:52:44.290 ,5,0,0.,24.0,0.,24.0
1979-07-12 08:53:08.290 ,6,1,0.,24.0,0.,24.0
1979-07-12 08:53:32.290 ,6,0,0.,24.0,0.,24.0
1979-07-12 08:53:56.290 ,7,1,0.,24.0,0.,24.0
1979-07-12 08:54:20.290 ,7,0,0.,24.0,0.,24.0
1979-07-12 08:54:44.290 ,7,1,0.,24.0,0.,24.0
1979-07-12 08:55:08.290 ,7,0,0.,24.0,0.,24.0
1979-07-12 08:55:32.290 ,6,1,1.,24.0,0.,24.0
1979-07-12 08:55:56.290 ,6,0,1.,24.0,0.,24.0
1979-07-12 08:56:20.290 ,5,1,0.,24.0,0.,24.0
1979-07-12 08:56:44.290 ,5,0,0.,24.0,0.,24.0
1979-07-12 08:57:08.290 ,4,1,0.,24.0,0.,24.0
1979-07-12 08:57:32.290 ,4,0,0.,24.0,0.,24.0
1979-07-12 08:57:56.290 ,3,1,0.,24.0,0.,24.0
1979-07-12 08:58:20.290 ,3,0,0.,24.0,0.,24.0
1979-07-12 08:58:44.290 ,2,1,1.,24.0,0.,24.0
1979-07-12 08:59:08.290 ,2,0,1.,24.0,0.,24.0
1979-07-12 08:59:32.290 ,1,1,0.,24.0,0.,24.0
1979-07-12 08:59:56.290 ,1,0,1.,24.0,0.,24.0
1979-07-12 09:00:20.290 ,0,1,0.,24.0,0.,24.0
